Regional Weather Roundup
Issued by NWS Sioux Falls, SD

Home | Current Version | Previous Version | Text Only | Print | Product List | Glossary On
Versions: 1 2 3 4 5 6 7 8 9 10 11 12 13 14 15 16 17 18 19 20 21 22 23 24 25 26 27 28 29 30 31 32 33 34 35 36 37 38 39 40 41 42 43 44 45 46 47 48 49 50
000
ASUS43 KFSD 291402
RWRFSD

WEATHER ROUNDUP FOR SE SOUTH DAKOTA/SW MINNESOTA/NW IOWA
NATIONAL WEATHER SERVICE SIOUX FALLS SD
900 AM CDT FRI AUG 29 2014

NOTE: "FAIR" INDICATES FEW OR NO CLOUDS BELOW 12,000 FEET WITH NO
SIGNIFICANT WEATHER AND OR OBSTRUCTIONS TO VISIBILITY.


SDZ038>040-050-052>070-291500-
SOUTHEAST SOUTH DAKOTA

CITY           SKY/WX    TMP DP  RH WIND       PRES   REMARKS
CHAMBERLAIN    CLOUDY    67  66  97 NW7       29.83R
HURON          CLOUDY    69  67  93 N5        29.78F FOG
MADISON        CLOUDY    68  68 100 NW7       29.79S FOG
MITCHELL       CLOUDY    69  69 100 CALM      29.79S FOG
SIOUX FALLS    CLOUDY    70  68  93 SW3       29.80R
WINNER         PTSUNNY   67  62  84 W10       29.85R
YANKTON        CLOUDY    70  66  88 NW3       29.80S
$$

MNZ071-072-080-081-089-090-097-098-291500-
SOUTHWEST MINNESOTA

CITY           SKY/WX    TMP DP  RH WIND       PRES   REMARKS
FAIRMONT       CLOUDY    66  64  94 S8        29.81S
JACKSON        CLOUDY    72  64  78 SW9       29.82S
LUVERNE        CLOUDY    70  68  94 S8        29.80R FOG
MARSHALL       CLOUDY    66  64  94 NW3       29.77S VSB 1/2
MONTEVIDEO     CLOUDY    66  66 100 CALM      29.78R THUNDER FOG
PIPESTONE      PTSUNNY   70  68  94 SW8       29.79F FOG
REDWOOD FALLS  CLOUDY    72  67  84 S12       29.77S
TRACY          CLOUDY    73  70  92 SW9       29.77F THUNDER FOG
WINDOM         CLOUDY    70  66  88 S9        29.81S
WORTHINGTON    CLOUDY    70  66  88 S12       29.82S
$$

IAZ001>003-012>014-020>022-031-032-NEZ013-014-SDZ071-291500-
NORTHWEST IOWA

CITY           SKY/WX    TMP DP  RH WIND       PRES   REMARKS
DENISON        CLOUDY    70  68  94 CALM      29.81S
ESTHERVILLE    CLOUDY    69  66  90 S10       29.81S
LE MARS        DRIZZLE   70  70 100 VRB6      29.81S
ORANGE CITY    LGT RAIN  72  66  83 S7        29.81S
SHELDON        CLOUDY    70  68  94 S12       29.80S
SIOUX CITY     LGT RAIN  71  70  96 SE6       29.80S FOG
SPENCER        LGT RAIN  70  66  87 S10       29.81F
STORM LAKE     CLOUDY    68  68 100 S10       29.84R
$$

ABBREVIATIONS USED IN REMARKS
   TC - TEMPERATURE IN CELSIUS
  WCI - WIND CHILL INDEX
   HX - HEAT INDEX
  VSB - VISIBILITY



USA.gov is the U.S. government's official web portal to all federal, state and local government web resources and services.